����,���ϕ���(m/s),���ϕ���,�ő�u�ԕ���(m/s),�ő啗��������,�C��(��),���x(%),10���Ԉړ��ώZ�J��(mm),1���Ԉړ��ώZ�J��(mm),���J��(mm),�݌v�J��(mm),����(���ώZ)(MJ/m2),����(���ώZ)(min),���n�C��(hPa),�C�ʋC��(hPa)
2023-07-17T00:00:00+09:00,2.6,��쐼,4.5,��쐼,26,92.4,0,0,0,0,26.56,546,1002.4,1015.7
2023-07-17T00:01:00+09:00,2.6,��쐼,4.5,��쐼,26,92.3,0,0,0,0,0,0,1002.4,1015.7
2023-07-17T00:02:00+09:00,2.8,��쐼,4.5,��쐼,26,92.3,0,0,0,0,0,0,1002.5,1015.8
2023-07-17T00:03:00+09:00,2.9,��쐼,4.5,��쐼,26,92.4,0,0,0,0,0,0,1002.5,1015.8
2023-07-17T00:04:00+09:00,2.8,��쐼,4.5,��쐼,26,92.3,0,0,0,0,0,0,1002.5,1015.8
2023-07-17T00:05:00+09:00,2.7,��쐼,4.5,��쐼,26.1,92.4,0,0,0,0,0,0,1002.4,1015.7
2023-07-17T00:06:00+09:00,2.7,��쐼,4.5,��쐼,26,92.3,0,0,0,0,0,0,1002.4,1015.7
2023-07-17T00:07:00+09:00,2.8,��쐼,4.9,��,26,92.3,0,0,0,0,0,0,1002.4,1015.7
2023-07-17T00:08:00+09:00,2.9,��쐼,4.9,��,26.1,92.3,0,0,0,0,0,0,1002.4,1015.7
2023-07-17T00:09:00+09:00,3,��,4.9,��,26.1,92.4,0,0,0,0,0,0,1002.4,1015.7
2023-07-17T00:10:00+09:00,3,��,4.9,��,26.1,92.3,0,0,0,0,0,0,1002.4,1015.7
2023-07-17T00:11:00+09:00,2.9,��쐼,4.9,��,26.1,92.2,0,0,0,0,0,0,1002.4,1015.7
2023-07-17T00:12:00+09:00,2.8,��쐼,4.9,��,26.1,92,0,0,0,0,0,0,1002.4,1015.7
2023-07-17T00:13:00+09:00,2.8,��쐼,4.9,��,26,92,0,0,0,0,0,0,1002.5,1015.8
2023-07-17T00:14:00+09:00,2.6,��쐼,4.9,��,26,92.2,0,0,0,0,0,0,1002.5,1015.8
2023-07-17T00:15:00+09:00,2.7,��쐼,4.9,��,26,92.2,0,0,0,0,0,0,1002.5,1015.8
2023-07-17T00:16:00+09:00,2.7,��쐼,4.9,��,26,92.4,0,0,0,0,0,0,1002.5,1015.8
2023-07-17T00:17:00+09:00,2.5,��쐼,4.8,��쐼,26.1,92.5,0,0,0,0,0,0,1002.5,1015.8
2023-07-17T00:18:00+09:00,2.4,��쐼,4.3,��,26,92.4,0,0,0,0,0,0,1002.5,1015.8
2023-07-17T00:19:00+09:00,2.4,��쐼,4,��,26,92.4,0,0,0,0,0,0,1002.5,1015.8
2023-07-17T00:20:00+09:00,2.4,��쐼,4,��,26,92.5,0,0,0,0,0,0,1002.5,1015.8
2023-07-17T00:21:00+09:00,2.4,��쐼,4,��,26,92.5,0,0,0,0,0,0,1002.5,1015.8
2023-07-17T00:22:00+09:00,2.3,��쐼,4,��,26.1,92.6,0,0,0,0,0,0,1002.5,1015.8
2023-07-17T00:23:00+09:00,2.2,��쐼,4,��,26,92.5,0,0,0,0,0,0,1002.5,1015.8
2023-07-17T00:24:00+09:00,2.3,��쐼,4.5,��쐼,26,92.4,0,0,0,0,0,0,1002.5,1015.8
2023-07-17T00:25:00+09:00,2.4,��쐼,4.9,��쐼,26.1,92.5,0,0,0,0,0,0,1002.5,1015.8
2023-07-17T00:26:00+09:00,2.6,��,4.9,��쐼,26.1,92.4,0,0,0,0,0,0,1002.5,1015.8
2023-07-17T00:27:00+09:00,2.6,��쐼,4.9,��쐼,26.2,92.3,0,0,0,0,0,0,1002.5,1015.8
2023-07-17T00:28:00+09:00,2.6,��쐼,4.9,��쐼,26.1,92.2,0,0,0,0,0,0,1002.5,1015.8
2023-07-17T00:29:00+09:00,2.7,��쐼,5.9,��,26.2,92,0,0,0,0,0,0,1002.5,1015.8
2023-07-17T00:30:00+09:00,2.7,��쐼,5.9,��,26.2,92,0,0,0,0,0,0,1002.5,1015.8
2023-07-17T00:31:00+09:00,2.8,��쐼,5.9,��,26.2,91.9,0,0,0,0,0,0,1002.5,1015.8
2023-07-17T00:32:00+09:00,3,��쐼,5.9,��,26.2,91.6,0,0,0,0,0,0,1002.5,1015.8
2023-07-17T00:33:00+09:00,3.2,��쐼,5.9,��,26.1,91.6,0,0,0,0,0,0,1002.4,1015.7
2023-07-17T00:34:00+09:00,3.3,��쐼,5.9,��,26.1,91.6,0,0,0,0,0,0,1002.4,1015.7
2023-07-17T00:35:00+09:00,3.2,��쐼,5.9,��,26.1,91.7,0,0,0,0,0,0,1002.4,1015.7
2023-07-17T00:36:00+09:00,3.1,��쐼,5.9,��,26.2,91.8,0,0,0,0,0,0,1002.4,1015.7
2023-07-17T00:37:00+09:00,3.1,��쐼,5.9,��,26.1,91.8,0,0,0,0,0,0,1002.5,1015.8
2023-07-17T00:38:00+09:00,3.1,��,5.9,��,26.1,91.9,0,0,0,0,0,0,1002.5,1015.8
2023-07-17T00:39:00+09:00,3,��,5,��,26.1,92,0,0,0,0,0,0,1002.5,1015.8
2023-07-17T00:40:00+09:00,2.9,��,5,��,26.1,92,0,0,0,0,0,0,1002.5,1015.8
2023-07-17T00:41:00+09:00,2.9,��,5,��,26.1,92.1,0,0,0,0,0,0,1002.5,1015.8
2023-07-17T00:42:00+09:00,2.9,��,5,��,26.1,92.2,0,0,0,0,0,0,1002.4,1015.7
2023-07-17T00:43:00+09:00,2.8,��,4.9,��,26.1,92.3,0,0,0,0,0,0,1002.4,1015.7
2023-07-17T00:44:00+09:00,2.6,��,4.9,��,26.1,92.3,0,0,0,0,0,0,1002.4,1015.7
2023-07-17T00:45:00+09:00,2.5,��,4.9,��,26.1,92.3,0,0,0,0,0,0,1002.4,1015.7
2023-07-17T00:46:00+09:00,2.5,��,4.9,��,26.1,92.4,0,0,0,0,0,0,1002.4,1015.7
2023-07-17T00:47:00+09:00,2.6,��,4.9,��,26.1,92.4,0,0,0,0,0,0,1002.4,1015.7
2023-07-17T00:48:00+09:00,2.5,��,4.9,��,26.2,92.6,0,0,0,0,0,0,1002.4,1015.7
2023-07-17T00:49:00+09:00,2.6,��,4.9,��,26.1,92.5,0,0,0,0,0,0,1002.4,1015.7
2023-07-17T00:50:00+09:00,2.6,��,4.9,��,26.1,92.4,0,0,0,0,0,0,1002.4,1015.7
2023-07-17T00:51:00+09:00,2.6,��,4.1,��쐼,26.1,92.4,0,0,0,0,0,0,1002.4,1015.7
2023-07-17T00:52:00+09:00,2.5,��,4.1,��쐼,26.2,92.4,0,0,0,0,0,0,1002.4,1015.7
2023-07-17T00:53:00+09:00,2.6,��,4.1,��쐼,26.2,92.2,0,0,0,0,0,0,1002.4,1015.7
2023-07-17T00:54:00+09:00,2.7,��,4.3,��,26.1,92,0,0,0,0,0,0,1002.4,1015.7
2023-07-17T00:55:00+09:00,2.7,��쐼,4.3,��,26.1,92,0,0,0,0,0,0,1002.4,1015.7
2023-07-17T00:56:00+09:00,2.8,��쐼,4.3,��,26.2,92,0,0,0,0,0,0,1002.4,1015.7
2023-07-17T00:57:00+09:00,2.7,��쐼,4.3,��,26.2,92,0,0,0,0,0,0,1002.4,1015.7
2023-07-17T00:58:00+09:00,2.7,��쐼,4.3,��,26.2,91.9,0,0,0,0,0,0,1002.3,1015.6
2023-07-17T00:59:00+09:00,2.7,��쐼,4.3,��,26.2,92,0,0,0,0,0,0,1002.4,1015.7
2023-07-17T01:00:00+09:00,2.5,��쐼,4.3,��,26.2,92,0,0,0,0,0,0,1002.3,1015.6
2023-07-17T01:01:00+09:00,2.4,��쐼,4.3,��,26.2,91.9,0,0,0,0,0,0,1002.3,1015.6
2023-07-17T01:02:00+09:00,2.5,��쐼,4.7,��,26.2,91.7,0,0,0,0,0,0,1002.3,1015.6
2023-07-17T01:03:00+09:00,2.6,��쐼,4.7,��,26.2,91.5,0,0,0,0,0,0,1002.3,1015.6
2023-07-17T01:04:00+09:00,2.6,��쐼,4.7,��,26.2,91.4,0,0,0,0,0,0,1002.3,1015.6
2023-07-17T01:05:00+09:00,2.6,��쐼,4.8,��,26.2,91.4,0,0,0,0,0,0,1002.3,1015.6
2023-07-17T01:06:00+09:00,2.7,��쐼,5.7,��,26.2,91.3,0,0,0,0,0,0,1002.3,1015.6
2023-07-17T01:07:00+09:00,2.8,��쐼,5.7,��,26.2,91.4,0,0,0,0,0,0,1002.3,1015.6
2023-07-17T01:08:00+09:00,2.9,��쐼,5.7,��,26.2,91.3,0,0,0,0,0,0,1002.3,1015.6
2023-07-17T01:09:00+09:00,3,��쐼,5.7,��,26.2,91.2,0,0,0,0,0,0,1002.2,1015.5
2023-07-17T01:10:00+09:00,3.1,��쐼,5.7,��,26.2,91.2,0,0,0,0,0,0,1002.2,1015.5
2023-07-17T01:11:00+09:00,3.1,��쐼,5.7,��,26.2,91.3,0,0,0,0,0,0,1002.2,1015.5
2023-07-17T01:12:00+09:00,3,��쐼,5.7,��,26.3,91.4,0,0,0,0,0,0,1002.2,1015.5
2023-07-17T01:13:00+09:00,2.9,��쐼,5.7,��,26.2,91.2,0,0,0,0,0,0,1002.2,1015.5
2023-07-17T01:14:00+09:00,2.8,��쐼,5.7,��,26.3,91.1,0,0,0,0,0,0,1002.2,1015.5
2023-07-17T01:15:00+09:00,2.8,��쐼,5.7,��,26.3,91,0,0,0,0,0,0,1002.2,1015.5
2023-07-17T01:16:00+09:00,2.6,��쐼,5,��,26.3,90.9,0,0,0,0,0,0,1002.2,1015.5
2023-07-17T01:17:00+09:00,2.6,��쐼,5,��,26.3,90.8,0,0,0,0,0,0,1002.2,1015.5
2023-07-17T01:18:00+09:00,2.5,��쐼,4.6,��,26.3,90.8,0,0,0,0,0,0,1002.2,1015.5
2023-07-17T01:19:00+09:00,2.3,��쐼,3.8,��쐼,26.3,90.8,0,0,0,0,0,0,1002.3,1015.6
2023-07-17T01:20:00+09:00,2.3,��쐼,3.8,��쐼,26.3,90.9,0,0,0,0,0,0,1002.2,1015.5
2023-07-17T01:21:00+09:00,2.2,��쐼,3.8,��쐼,26.3,90.9,0,0,0,0,0,0,1002.2,1015.5
2023-07-17T01:22:00+09:00,2.2,��쐼,3.7,��,26.2,90.7,0,0,0,0,0,0,1002.2,1015.5
2023-07-17T01:23:00+09:00,2.3,��쐼,3.7,��,26.1,90.6,0,0,0,0,0,0,1002.2,1015.5
2023-07-17T01:24:00+09:00,2.3,��쐼,3.5,��쐼,26.2,90.9,0,0,0,0,0,0,1002.2,1015.5
2023-07-17T01:25:00+09:00,2.3,��쐼,3.5,��쐼,26.1,91.1,0,0,0,0,0,0,1002.2,1015.5
2023-07-17T01:26:00+09:00,2.2,��쐼,3.5,��쐼,26.1,91.4,0,0,0,0,0,0,1002.2,1015.5
2023-07-17T01:27:00+09:00,2.2,��쐼,3.5,��쐼,26.1,91.4,0,0,0,0,0,0,1002.2,1015.5
2023-07-17T01:28:00+09:00,2.2,��쐼,3.5,��쐼,26.1,91.6,0,0,0,0,0,0,1002.2,1015.5
2023-07-17T01:29:00+09:00,2.3,��쐼,3.5,��쐼,26.1,91.8,0,0,0,0,0,0,1002.2,1015.5
2023-07-17T01:30:00+09:00,2.3,��쐼,3.5,��쐼,26.1,91.8,0,0,0,0,0,0,1002.2,1015.5
2023-07-17T01:31:00+09:00,2.2,��쐼,3.5,��쐼,26.2,91.9,0,0,0,0,0,0,1002.2,1015.5
2023-07-17T01:32:00+09:00,2.2,��쐼,3.5,��쐼,26.2,91.9,0,0,0,0,0,0,1002.1,1015.4
2023-07-17T01:33:00+09:00,2.1,��쐼,3.5,��쐼,26.2,91.8,0,0,0,0,0,0,1002.1,1015.4
2023-07-17T01:34:00+09:00,2,��쐼,3.5,��쐼,26.1,91.5,0,0,0,0,0,0,1002.2,1015.5
2023-07-17T01:35:00+09:00,1.9,��쐼,3.5,��쐼,26.1,91.7,0,0,0,0,0,0,1002.2,1015.5
2023-07-17T01:36:00+09:00,1.9,��쐼,3.5,��쐼,26.1,91.6,0,0,0,0,0,0,1002.2,1015.5
2023-07-17T01:37:00+09:00,1.8,��쐼,3.5,��쐼,25.8,91.3,0,0,0,0,0,0,1002.2,1015.5
2023-07-17T01:38:00+09:00,1.7,�쐼,3.5,��쐼,25.6,90.5,0,0,0,0,0,0,1002.2,1015.6
2023-07-17T01:39:00+09:00,1.6,�쐼,3.5,��쐼,25.6,91,0,0,0,0,0,0,1002.2,1015.6
2023-07-17T01:40:00+09:00,1.4,�쐼,3.5,��쐼,25.7,91.9,0,0,0,0,0,0,1002.1,1015.5
2023-07-17T01:41:00+09:00,1.4,�쐼,3.5,��쐼,25.7,92.3,0,0,0,0,0,0,1002.1,1015.5
2023-07-17T01:42:00+09:00,1.3,�쐼,2.6,��,25.6,92.3,0,0,0,0,0,0,1002.1,1015.5
2023-07-17T01:43:00+09:00,1.2,���쐼,2.6,��,25.6,92.3,0,0,0,0,0,0,1002.1,1015.5
2023-07-17T01:44:00+09:00,1.2,�쐼,2.6,��,25.6,92.6,0,0,0,0,0,0,1002.1,1015.5
2023-07-17T01:45:00+09:00,1.2,���쐼,2.6,��,25.5,92.5,0,0,0,0,0,0,1002.1,1015.5
2023-07-17T01:46:00+09:00,1.1,���쐼,2.6,��,25.5,92.6,0,0,0,0,0,0,1002.1,1015.5
2023-07-17T01:47:00+09:00,1.1,���쐼,2.2,��,25.5,92.9,0,0,0,0,0,0,1002.1,1015.5
2023-07-17T01:48:00+09:00,1,���쐼,2.2,��,25.6,93.3,0,0,0,0,0,0,1002.1,1015.5
2023-07-17T01:49:00+09:00,1.1,���쐼,2.2,��,25.6,93.3,0,0,0,0,0,0,1002.1,1015.5
2023-07-17T01:50:00+09:00,1.2,���쐼,2.2,��,25.5,93,0,0,0,0,0,0,1002.1,1015.5
2023-07-17T01:51:00+09:00,1.2,���쐼,2.2,��,25.4,92.8,0,0,0,0,0,0,1002.1,1015.5
2023-07-17T01:52:00+09:00,1.2,���쐼,2.5,���쐼,25.4,92.9,0,0,0,0,0,0,1002.1,1015.5
2023-07-17T01:53:00+09:00,1.3,���쐼,2.5,���쐼,25.5,93.2,0,0,0,0,0,0,1002.1,1015.5
2023-07-17T01:54:00+09:00,1.3,��,2.5,���쐼,25.4,93.3,0,0,0,0,0,0,1002.1,1015.5
2023-07-17T01:55:00+09:00,1.3,��,2.5,���쐼,25.5,93.3,0,0,0,0,0,0,1002.1,1015.5
2023-07-17T01:56:00+09:00,1.3,��,2.5,���쐼,25.7,93.8,0,0,0,0,0,0,1002.1,1015.5
2023-07-17T01:57:00+09:00,1.3,��,2.5,���쐼,25.7,93.8,0,0,0,0,0,0,1002.1,1015.5
2023-07-17T01:58:00+09:00,1.2,��,2.5,���쐼,25.6,93.4,0,0,0,0,0,0,1002.1,1015.5
2023-07-17T01:59:00+09:00,1.2,��,2.5,���쐼,25.5,92.5,0,0,0,0,0,0,1002.1,1015.5
2023-07-17T02:00:00+09:00,1.2,��,2.5,���쐼,25.4,92.3,0,0,0,0,0,0,1002.1,1015.5
2023-07-17T02:01:00+09:00,1.2,��,2.6,��,25.4,92.3,0,0,0,0,0,0,1002.1,1015.5
2023-07-17T02:02:00+09:00,1.3,��,2.6,��,25.3,92.3,0,0,0,0,0,0,1002.1,1015.5
2023-07-17T02:03:00+09:00,1.3,��,2.6,��,25.2,92.3,0,0,0,0,0,0,1002.1,1015.5
2023-07-17T02:04:00+09:00,1.5,��,2.9,���쐼,25.3,92.7,0,0,0,0,0,0,1002.1,1015.5
2023-07-17T02:05:00+09:00,1.6,��,3.3,��,25.2,92.9,0,0,0,0,0,0,1002.2,1015.6
2023-07-17T02:06:00+09:00,1.6,��,3.3,��,25.3,93.1,0,0,0,0,0,0,1002.2,1015.6
2023-07-17T02:07:00+09:00,1.8,��,3.3,��,25.3,93.3,0,0,0,0,0,0,1002.2,1015.6
2023-07-17T02:08:00+09:00,1.9,��,3.3,��,25.3,93.3,0,0,0,0,0,0,1002.2,1015.6
2023-07-17T02:09:00+09:00,2,��,3.3,��,25.3,93.3,0,0,0,0,0,0,1002.2,1015.6
2023-07-17T02:10:00+09:00,2.2,��,3.4,��,25.2,93,0,0,0,0,0,0,1002.2,1015.6
2023-07-17T02:11:00+09:00,2.1,��,3.4,��,25.1,92.9,0,0,0,0,0,0,1002.2,1015.6
2023-07-17T02:12:00+09:00,2.1,��,3.4,��,25.2,93.2,0,0,0,0,0,0,1002.1,1015.5
2023-07-17T02:13:00+09:00,2,��,3.4,��,25.2,93.3,0,0,0,0,0,0,1002.1,1015.5
2023-07-17T02:14:00+09:00,1.8,���쐼,3.4,��,25.4,93.9,0,0,0,0,0,0,1002.1,1015.5
2023-07-17T02:15:00+09:00,1.6,���쐼,3.4,��,25.6,94.2,0,0,0,0,0,0,1002.2,1015.6
2023-07-17T02:16:00+09:00,1.6,���쐼,3.4,��,25.5,94,0,0,0,0,0,0,1002.1,1015.5
2023-07-17T02:17:00+09:00,1.5,���쐼,3.4,��,25.4,93.1,0,0,0,0,0,0,1002.1,1015.5
2023-07-17T02:18:00+09:00,1.3,���쐼,3.4,��,25.4,92.8,0,0,0,0,0,0,1002.1,1015.5
2023-07-17T02:19:00+09:00,1.1,���쐼,3.4,��,25.3,92.8,0,0,0,0,0,0,1002.1,1015.5
2023-07-17T02:20:00+09:00,0.8,�쐼,3,��,25.3,92.7,0,0,0,0,0,0,1002.1,1015.5
2023-07-17T02:21:00+09:00,0.7,�쐼,2.1,���쐼,25.5,93.3,0,0,0,0,0,0,1002.1,1015.5
2023-07-17T02:22:00+09:00,0.7,�쐼,1.5,��쐼,25.4,93.1,0,0,0,0,0,0,1002,1015.4
2023-07-17T02:23:00+09:00,0.7,�쐼,2.2,�쐼,25.4,92.7,0,0,0,0,0,0,1002,1015.4
2023-07-17T02:24:00+09:00,0.9,�쐼,2.7,��쐼,25.6,93.5,0,0,0,0,0,0,1002,1015.4
2023-07-17T02:25:00+09:00,1,�쐼,2.7,��쐼,25.7,94,0,0,0,0,0,0,1002,1015.3
2023-07-17T02:26:00+09:00,0.9,��쐼,2.7,��쐼,25.7,93.9,0,0,0,0,0,0,1002,1015.3
2023-07-17T02:27:00+09:00,1,��쐼,2.7,��쐼,25.7,93.8,0,0,0,0,0,0,1002,1015.3
2023-07-17T02:28:00+09:00,1,��쐼,2.7,��쐼,25.6,93.5,0,0,0,0,0,0,1002,1015.4
2023-07-17T02:29:00+09:00,1.2,�쐼,2.7,��쐼,25.8,93.9,0,0,0,0,0,0,1002,1015.3
2023-07-17T02:30:00+09:00,1.2,�쐼,2.7,��쐼,25.7,93.5,0,0,0,0,0,0,1002,1015.3
2023-07-17T02:31:00+09:00,1.3,�쐼,2.7,��쐼,25.7,93,0,0,0,0,0,0,1002,1015.3
2023-07-17T02:32:00+09:00,1.4,�쐼,2.7,��쐼,25.6,92.8,0,0,0,0,0,0,1002,1015.4
2023-07-17T02:33:00+09:00,1.3,�쐼,2.7,��쐼,25.6,92.9,0,0,0,0,0,0,1001.9,1015.3
2023-07-17T02:34:00+09:00,1.3,�쐼,2.2,�쐼,25.5,93,0,0,0,0,0,0,1002,1015.4
2023-07-17T02:35:00+09:00,1.3,�쐼,2.2,�쐼,25.5,92.9,0,0,0,0,0,0,1001.9,1015.3
2023-07-17T02:36:00+09:00,1.3,�쐼,2.2,�쐼,25.4,93,0,0,0,0,0,0,1002,1015.4
2023-07-17T02:37:00+09:00,1.3,�쐼,2.2,�쐼,25.4,92.8,0,0,0,0,0,0,1001.9,1015.3
2023-07-17T02:38:00+09:00,1.3,�쐼,2.2,�쐼,25.2,92.7,0,0,0,0,0,0,1002,1015.4
2023-07-17T02:39:00+09:00,1.2,�쐼,2.2,�쐼,25.3,93,0,0,0,0,0,0,1001.9,1015.3
2023-07-17T02:40:00+09:00,1.2,���쐼,2.2,�쐼,25.1,92.7,0,0,0,0,0,0,1001.9,1015.3
2023-07-17T02:41:00+09:00,1.3,�쐼,2.9,�쐼,25.3,93.4,0,0,0,0,0,0,1002,1015.4
2023-07-17T02:42:00+09:00,1.3,�쐼,2.9,�쐼,25.5,94.3,0,0,0,0,0,0,1002,1015.4
2023-07-17T02:43:00+09:00,1.4,�쐼,2.9,�쐼,25.5,94.6,0,0,0,0,0,0,1002,1015.4
2023-07-17T02:44:00+09:00,1.4,�쐼,2.9,�쐼,25.4,94.2,0,0,0,0,0,0,1002,1015.4
2023-07-17T02:45:00+09:00,1.4,���쐼,2.9,�쐼,25.3,93.5,0,0,0,0,0,0,1002,1015.4
2023-07-17T02:46:00+09:00,1.4,���쐼,2.9,�쐼,25.4,94,0,0,0,0,0,0,1002,1015.4
2023-07-17T02:47:00+09:00,1.5,���쐼,2.9,�쐼,25.3,93.6,0,0,0,0,0,0,1002,1015.4
2023-07-17T02:48:00+09:00,1.5,���쐼,3,��,25.3,93.8,0,0,0,0,0,0,1002,1015.4
2023-07-17T02:49:00+09:00,1.6,���쐼,3,��,25.3,93.6,0,0,0,0,0,0,1002,1015.4
2023-07-17T02:50:00+09:00,1.6,���쐼,3,��,25.2,93.5,0,0,0,0,0,0,1002,1015.4
2023-07-17T02:51:00+09:00,1.6,���쐼,3,��,25.2,93.6,0,0,0,0,0,0,1002,1015.4
2023-07-17T02:52:00+09:00,1.6,���쐼,3,��,25.5,94.7,0,0,0,0,0,0,1002,1015.4
2023-07-17T02:53:00+09:00,1.6,���쐼,3,��,25.6,95,0,0,0,0,0,0,1001.9,1015.3
2023-07-17T02:54:00+09:00,1.5,���쐼,3,��,25.9,95.3,0,0,0,0,0,0,1002,1015.3
2023-07-17T02:55:00+09:00,1.5,�쐼,3,��,25.8,94.8,0,0,0,0,0,0,1001.9,1015.2
2023-07-17T02:56:00+09:00,1.5,�쐼,3,��,25.6,94,0,0,0,0,0,0,1001.9,1015.3
2023-07-17T02:57:00+09:00,1.5,�쐼,3,��,25.5,93.6,0,0,0,0,0,0,1001.9,1015.3
2023-07-17T02:58:00+09:00,1.6,�쐼,3.8,��,25.7,93.9,0,0,0,0,0,0,1001.9,1015.2
2023-07-17T02:59:00+09:00,1.6,�쐼,3.8,��,25.8,94.2,0,0,0,0,0,0,1002,1015.3
2023-07-17T03:00:00+09:00,1.7,�쐼,4.3,��쐼,25.7,94.1,0,0,0,0,0,0,1002,1015.3
2023-07-17T03:01:00+09:00,1.7,��쐼,4.3,��쐼,25.8,94,0,0,0,0,0,0,1002,1015.3
2023-07-17T03:02:00+09:00,1.8,��쐼,4.4,��,25.8,94.1,0,0,0,0,0,0,1002,1015.3
2023-07-17T03:03:00+09:00,2,��쐼,5.2,��,25.8,93.9,0,0,0,0,0,0,1001.9,1015.2
2023-07-17T03:04:00+09:00,2.2,��쐼,5.3,��쐼,25.8,93.8,0,0,0,0,0,0,1001.9,1015.2
2023-07-17T03:05:00+09:00,2.4,��쐼,5.6,�쐼,25.8,93.7,0,0,0,0,0,0,1002,1015.3
2023-07-17T03:06:00+09:00,2.6,��쐼,5.7,��쐼,25.8,93.8,0,0,0,0,0,0,1001.9,1015.2
2023-07-17T03:07:00+09:00,2.9,��쐼,5.8,��쐼,25.8,93.8,0,0,0,0,0,0,1001.9,1015.2
2023-07-17T03:08:00+09:00,3,��쐼,5.8,��쐼,25.8,93.8,0,0,0,0,0,0,1001.9,1015.2
2023-07-17T03:09:00+09:00,3.2,��쐼,5.8,��쐼,25.9,93.8,0,0,0,0,0,0,1001.9,1015.2
2023-07-17T03:10:00+09:00,3.4,��쐼,5.8,��쐼,25.9,93.7,0,0,0,0,0,0,1001.9,1015.2
2023-07-17T03:11:00+09:00,3.6,��쐼,5.8,��쐼,25.9,93.6,0,0,0,0,0,0,1001.9,1015.2
2023-07-17T03:12:00+09:00,3.7,��쐼,5.8,��쐼,25.8,93.5,0,0,0,0,0,0,1001.9,1015.2
2023-07-17T03:13:00+09:00,3.7,��쐼,5.8,��쐼,25.8,93.5,0,0,0,0,0,0,1001.9,1015.2
2023-07-17T03:14:00+09:00,3.7,��쐼,5.8,��쐼,25.8,93.7,0,0,0,0,0,0,1001.9,1015.2
2023-07-17T03:15:00+09:00,3.7,��쐼,5.8,��쐼,25.8,93.6,0,0,0,0,0,0,1001.9,1015.2
2023-07-17T03:16:00+09:00,3.8,��쐼,5.8,��쐼,25.8,93.7,0,0,0,0,0,0,1001.9,1015.2
2023-07-17T03:17:00+09:00,3.7,��쐼,5.8,��쐼,25.8,93.8,0,0,0,0,0,0,1001.9,1015.2
2023-07-17T03:18:00+09:00,3.7,��쐼,5.8,��쐼,25.8,93.9,0,0,0,0,0,0,1001.9,1015.2
2023-07-17T03:19:00+09:00,3.7,��쐼,5.8,��쐼,25.7,93.9,0,0,0,0,0,0,1001.9,1015.2
2023-07-17T03:20:00+09:00,3.6,��쐼,5.8,��쐼,25.7,94,0,0,0,0,0,0,1001.9,1015.2
2023-07-17T03:21:00+09:00,3.6,��쐼,5.1,��쐼,25.7,94.1,0,0,0,0,0,0,1001.9,1015.2
2023-07-17T03:22:00+09:00,3.5,��쐼,5.1,��쐼,25.7,94.3,0,0,0,0,0,0,1001.9,1015.2
2023-07-17T03:23:00+09:00,3.4,��쐼,5.1,��쐼,25.7,94.4,0,0,0,0,0,0,1001.9,1015.2
2023-07-17T03:24:00+09:00,3.4,��쐼,5.1,��쐼,25.7,94.4,0,0,0,0,0,0,1001.9,1015.2
2023-07-17T03:25:00+09:00,3.3,��쐼,5.1,��쐼,25.6,94.4,0,0,0,0,0,0,1001.9,1015.3
2023-07-17T03:26:00+09:00,3.3,��쐼,5.1,��쐼,25.6,94.5,0,0,0,0,0,0,1001.9,1015.3
2023-07-17T03:27:00+09:00,3.2,��쐼,5.1,��쐼,25.7,94.7,0,0,0,0,0,0,1001.9,1015.2
2023-07-17T03:28:00+09:00,3.1,��쐼,4.9,��쐼,25.7,94.7,0,0,0,0,0,0,1001.9,1015.2
2023-07-17T03:29:00+09:00,3.1,��쐼,4.9,��쐼,25.6,94.6,0,0,0,0,0,0,1001.9,1015.3
2023-07-17T03:30:00+09:00,3,��쐼,4.9,��쐼,25.6,94.7,0,0,0,0,0,0,1001.9,1015.3
2023-07-17T03:31:00+09:00,3,��쐼,4.9,��쐼,25.6,94.8,0,0,0,0,0,0,1001.9,1015.3
2023-07-17T03:32:00+09:00,2.9,��쐼,4.8,��,25.6,94.9,0,0,0,0,0,0,1001.9,1015.3
2023-07-17T03:33:00+09:00,2.9,��쐼,4.8,��,25.6,95,0,0,0,0,0,0,1001.9,1015.3
2023-07-17T03:34:00+09:00,2.8,��쐼,4.8,��,25.7,95.1,0,0,0,0,0,0,1001.9,1015.2
2023-07-17T03:35:00+09:00,2.7,��쐼,4.8,��,25.7,95.2,0,0,0,0,0,0,1001.9,1015.2
2023-07-17T03:36:00+09:00,2.6,��쐼,4.8,��,25.7,95.1,0,0,0,0,0,0,1001.9,1015.2
2023-07-17T03:37:00+09:00,2.5,��쐼,4.8,��,25.7,94.9,0,0,0,0,0,0,1001.9,1015.2
2023-07-17T03:38:00+09:00,2.5,��쐼,4.8,��,25.7,94.8,0,0,0,0,0,0,1001.9,1015.2
2023-07-17T03:39:00+09:00,2.5,��쐼,4.8,��,25.7,94.8,0,0,0,0,0,0,1001.8,1015.1
2023-07-17T03:40:00+09:00,2.5,��쐼,4.4,��쐼,25.6,94.8,0,0,0,0,0,0,1001.8,1015.2
2023-07-17T03:41:00+09:00,2.6,��쐼,4.4,��쐼,25.7,94.9,0,0,0,0,0,0,1001.9,1015.2
2023-07-17T03:42:00+09:00,2.6,��쐼,4.4,��쐼,25.6,94.9,0,0,0,0,0,0,1001.9,1015.3
2023-07-17T03:43:00+09:00,2.7,��쐼,4.4,��쐼,25.6,94.9,0,0,0,0,0,0,1001.8,1015.2
2023-07-17T03:44:00+09:00,2.8,��쐼,4.4,��쐼,25.6,94.9,0,0,0,0,0,0,1001.9,1015.3
2023-07-17T03:45:00+09:00,3,��쐼,4.4,��쐼,25.6,94.9,0,0,0,0,0,0,1001.8,1015.2
2023-07-17T03:46:00+09:00,3.1,��쐼,4.8,��쐼,25.6,95,0,0,0,0,0,0,1001.8,1015.2
2023-07-17T03:47:00+09:00,3.2,��쐼,4.8,��쐼,25.6,95.1,0,0,0,0,0,0,1001.9,1015.3
2023-07-17T03:48:00+09:00,3.2,��쐼,4.8,��쐼,25.7,95.2,0,0,0,0,0,0,1001.9,1015.2
2023-07-17T03:49:00+09:00,3.2,��쐼,4.8,��쐼,25.6,95.2,0,0,0,0,0,0,1001.9,1015.3
2023-07-17T03:50:00+09:00,3.2,��쐼,4.8,��쐼,25.6,95.1,0,0,0,0,0,0,1001.9,1015.3
2023-07-17T03:51:00+09:00,3.2,��쐼,4.8,��쐼,25.5,95.1,0,0,0,0,0,0,1001.9,1015.3
2023-07-17T03:52:00+09:00,3.2,��쐼,4.8,��쐼,25.5,95.1,0,0,0,0,0,0,1001.9,1015.3
2023-07-17T03:53:00+09:00,3.3,��쐼,5.6,��,25.5,95.2,0,0,0,0,0,0,1001.9,1015.3
2023-07-17T03:54:00+09:00,3.3,��쐼,5.6,��,25.6,95.2,0,0,0,0,0,0,1001.9,1015.3
2023-07-17T03:55:00+09:00,3.3,��쐼,5.6,��,25.6,95.2,0,0,0,0,0,0,1001.9,1015.3
2023-07-17T03:56:00+09:00,3.3,��쐼,5.6,��,25.5,95.2,0,0,0,0,0,0,1001.9,1015.3
2023-07-17T03:57:00+09:00,3.2,��쐼,5.6,��,25.5,95.2,0,0,0,0,0,0,1001.9,1015.3
2023-07-17T03:58:00+09:00,3.3,��쐼,5.6,��,25.5,95.3,0,0,0,0,0,0,1001.9,1015.3
2023-07-17T03:59:00+09:00,3.3,��쐼,5.6,��,25.5,95.3,0,0,0,0,0,0,1001.9,1015.3
2023-07-17T04:00:00+09:00,3.3,��쐼,5.6,��,25.5,95.3,0,0,0,0,0,0,1001.9,1015.3
2023-07-17T04:01:00+09:00,3.2,��쐼,5.6,��,25.5,95.3,0,0,0,0,0,0,1001.9,1015.3
2023-07-17T04:02:00+09:00,3.1,��쐼,5.6,��,25.6,95.4,0,0,0,0,0,0,1001.9,1015.3
2023-07-17T04:03:00+09:00,3,��쐼,5,��,25.6,95.4,0,0,0,0,0,0,1001.8,1015.2
2023-07-17T04:04:00+09:00,2.9,��쐼,4.9,��쐼,25.5,95.2,0,0,0,0,0,0,1001.8,1015.2
2023-07-17T04:05:00+09:00,2.9,��쐼,4.8,��쐼,25.5,95.1,0,0,0,0,0,0,1001.8,1015.2
2023-07-17T04:06:00+09:00,3,��쐼,5.8,��쐼,25.5,95.1,0,0,0,0,0,0,1001.8,1015.2
2023-07-17T04:07:00+09:00,3.2,��쐼,6.1,��쐼,25.5,95.1,0,0,0,0,0,0,1001.8,1015.2
2023-07-17T04:08:00+09:00,3.3,��쐼,6.1,��쐼,25.5,95.1,0,0,0,0,0,0,1001.8,1015.2
2023-07-17T04:09:00+09:00,3.4,��쐼,6.1,��쐼,25.5,95.2,0,0,0,0,0,0,1001.8,1015.2
2023-07-17T04:10:00+09:00,3.4,��쐼,6.1,��쐼,25.5,95.3,0,0,0,0,0,0,1001.8,1015.2
2023-07-17T04:11:00+09:00,3.4,��쐼,6.1,��쐼,25.5,95.2,0,0,0,0,0,0,1001.8,1015.2
2023-07-17T04:12:00+09:00,3.7,��쐼,6.1,��쐼,25.5,95.2,0,0,0,0,0,0,1001.9,1015.3
2023-07-17T04:13:00+09:00,3.8,��쐼,6.1,��쐼,25.5,95.1,0,0,0,0,0,0,1001.9,1015.3
2023-07-17T04:14:00+09:00,3.8,��쐼,6.1,��쐼,25.6,95.1,0,0,0,0,0,0,1001.9,1015.3
2023-07-17T04:15:00+09:00,3.8,��쐼,6.1,��쐼,25.6,95,0,0,0,0,0,0,1001.9,1015.3
2023-07-17T04:16:00+09:00,3.6,��쐼,6.1,��쐼,25.5,94.9,0,0,0,0,0,0,1001.9,1015.3
2023-07-17T04:17:00+09:00,3.6,��쐼,5.6,��쐼,25.5,94.9,0,0,0,0,0,0,1001.9,1015.3
2023-07-17T04:18:00+09:00,3.6,��쐼,5.6,��쐼,25.5,94.9,0,0,0,0,0,0,1001.9,1015.3
2023-07-17T04:19:00+09:00,3.6,��쐼,5.4,��쐼,25.5,94.9,0,0,0,0,0,0,1002,1015.4
2023-07-17T04:20:00+09:00,3.6,��쐼,5.4,��쐼,25.5,95,0,0,0,0,0,0,1002,1015.4
2023-07-17T04:21:00+09:00,3.7,��쐼,5.4,��쐼,25.5,95,0,0,0,0,0,0,1002,1015.4
2023-07-17T04:22:00+09:00,3.6,��쐼,5.3,��쐼,25.5,95.2,0,0,0,0,0,0,1002,1015.4
2023-07-17T04:23:00+09:00,3.4,��쐼,5.3,��쐼,25.4,95.2,0,0,0,0,0,0,1002,1015.4
2023-07-17T04:24:00+09:00,3.5,��쐼,5.8,��쐼,25.4,95.2,0,0,0,0,0,0,1002,1015.4
2023-07-17T04:25:00+09:00,3.6,��쐼,5.8,��쐼,25.4,95.2,0,0,0,0,0,0,1002.1,1015.5
2023-07-17T04:26:00+09:00,3.6,��쐼,5.8,��쐼,25.4,95.3,0,0,0,0,0,0,1002.1,1015.5
2023-07-17T04:27:00+09:00,3.5,��쐼,5.8,��쐼,25.5,95.4,0,0,0,0,0,0,1002.1,1015.5
2023-07-17T04:28:00+09:00,3.4,��쐼,5.8,��쐼,25.5,95.3,0,0,0,0,0,0,1002.1,1015.5
2023-07-17T04:29:00+09:00,3.3,��,5.8,��쐼,25.4,95.3,0,0,0,0,0,0,1002.1,1015.5
2023-07-17T04:30:00+09:00,3.2,��,5.8,��쐼,25.4,95.3,0,0,0,0,0,0,1002.1,1015.5
2023-07-17T04:31:00+09:00,3.1,��,5.8,��쐼,25.5,95.4,0,0,0,0,0,0,1002.1,1015.5
2023-07-17T04:32:00+09:00,3,��,5.8,��쐼,25.5,95.4,0,0,0,0,0,0,1002.1,1015.5
2023-07-17T04:33:00+09:00,3,��,5.8,��쐼,25.4,95.4,0,0,0,0,0,0,1002.2,1015.6
2023-07-17T04:34:00+09:00,2.8,��,5,��쐼,25.5,95.4,0,0,0,0,0,0,1002.2,1015.6
2023-07-17T04:35:00+09:00,2.7,��,4.5,��쐼,25.4,95.4,0,0,0,0,0,0,1002.2,1015.6
2023-07-17T04:36:00+09:00,2.5,��,4.2,��쓌,25.4,95.3,0,0,0,0,0,0,1002.2,1015.6
2023-07-17T04:37:00+09:00,2.4,��,4.1,��쐼,25.5,95.4,0,0,0,0,0,0,1002.2,1015.6
2023-07-17T04:38:00+09:00,2.3,��,4.1,��쐼,25.4,95.4,0,0,0,0,0,0,1002.2,1015.6
2023-07-17T04:39:00+09:00,2.1,��,4.1,��쐼,25.5,95.4,0,0,0,0,0,0,1002.2,1015.6
2023-07-17T04:40:00+09:00,2,��,3.3,��,25.5,95.5,0,0,0,0,0,0,1002.2,1015.6
2023-07-17T04:41:00+09:00,1.8,��,3.3,��,25.7,95.6,0,0,0,0,0,0,1002.3,1015.7
2023-07-17T04:42:00+09:00,1.8,��,3.3,��,25.5,95.4,0,0,0,0,0,0,1002.3,1015.7
2023-07-17T04:43:00+09:00,1.7,��쐼,3.2,��,25.6,95.4,0,0,0,0,0,0,1002.3,1015.7
2023-07-17T04:44:00+09:00,1.6,��,3.2,��,25.7,95.2,0,0,0,0,0,0,1002.3,1015.7
2023-07-17T04:45:00+09:00,1.4,��쐼,3.1,��,25.2,94.3,0,0,0,0,0,0,1002.3,1015.7
2023-07-17T04:46:00+09:00,1.2,��쐼,2.9,��쓌,25.5,94.6,0,0,0,0,0,0,1002.3,1015.7
2023-07-17T04:47:00+09:00,1.1,��쐼,2.8,��,25.7,95.1,0,0,0,0,0,0,1002.3,1015.7
2023-07-17T04:48:00+09:00,0.9,��쐼,2.3,��,25.7,95.1,0,0,0,0,0,0,1002.3,1015.7
2023-07-17T04:49:00+09:00,0.9,��쐼,2.1,��쐼,25.6,94.6,0,0,0,0,0,0,1002.3,1015.7
2023-07-17T04:50:00+09:00,0.8,��쐼,2.1,��쐼,25.7,94.5,0,0,0,0,0,0,1002.3,1015.7
2023-07-17T04:51:00+09:00,0.8,��,2.1,��쐼,25.6,94.4,0,0,0,0,0,0,1002.3,1015.7
2023-07-17T04:52:00+09:00,0.7,��,2.1,��쐼,25.5,94.1,0,0,0,0,0,0,1002.3,1015.7
2023-07-17T04:53:00+09:00,0.6,��,1.5,��,25.4,94,0,0,0,0,0,0,1002.3,1015.7
2023-07-17T04:54:00+09:00,0.6,��,1.5,��,25.6,94.6,0,0,0,0,0,0,1002.3,1015.7
2023-07-17T04:55:00+09:00,0.6,��쓌,1.5,��,25.8,95.2,0,0,0,0,0,0,1002.3,1015.6
2023-07-17T04:56:00+09:00,0.6,��쓌,1.5,��,25.9,95,0,0,0,0,0,0,1002.3,1015.6
2023-07-17T04:57:00+09:00,0.7,��쓌,2.4,��쐼,25.6,94.2,0,0,0,0,0,0,1002.4,1015.8
2023-07-17T04:58:00+09:00,0.7,��쓌,2.4,��쐼,25.5,93.7,0,0,0,0,0,0,1002.4,1015.8
2023-07-17T04:59:00+09:00,0.8,��쓌,2.4,��쐼,25.6,93.8,0,0,0,0,0,0,1002.4,1015.8
2023-07-17T05:00:00+09:00,0.8,��쓌,2.4,��쐼,25.5,94.1,0,0,0,0,0,0,1002.4,1015.8
2023-07-17T05:01:00+09:00,0.8,��,2.4,��쐼,25.6,94.3,0,0,0,0,0,0,1002.4,1015.8
2023-07-17T05:02:00+09:00,0.8,��,2.4,��쐼,25.6,94.5,0,0,0,0,0,0,1002.3,1015.7
2023-07-17T05:03:00+09:00,0.9,��,2.4,��쐼,25.6,94.5,0,0,0,0,0,0,1002.4,1015.8
2023-07-17T05:04:00+09:00,1,��,2.4,��쐼,25.5,94.4,0,0,0,0,0,0,1002.4,1015.8
2023-07-17T05:05:00+09:00,1,��쐼,2.4,��쐼,25.2,93.5,0,0,0,0,0,0,1002.4,1015.8
2023-07-17T05:06:00+09:00,1,��쐼,2.4,��쐼,25.4,94,0,0,0,0,0,0,1002.4,1015.8
2023-07-17T05:07:00+09:00,1,��쐼,2.5,��쐼,25.3,94.1,0,0,0,0,0,0,1002.4,1015.8
2023-07-17T05:08:00+09:00,1,��쐼,2.5,��쐼,25.3,94.3,0,0,0,0,0,0,1002.4,1015.8
2023-07-17T05:09:00+09:00,1,��쐼,2.5,��쐼,25.1,94.1,0,0,0,0,0,0,1002.4,1015.8
2023-07-17T05:10:00+09:00,1.1,��쐼,2.6,��쐼,25.1,94.5,0,0,0,0,0,0,1002.4,1015.8